Flag for U.S.A. Weather past 2 weeks in Carson City, Nevada, U.S.A.

Now
69 °F

Passing clouds.


Feels Like: 69 °F
Forecast: 59 / 88 °F
Wind: 3 mph from North

Location: Reno Tahoe International Airport

Current Time: Jul 28, 2014 at 6:35:58 AM

Latest Report: Jul 28, 2014 at 5:55 AM


Visibility: 10 mi

Pressure: 30.01 "Hg

Humidity: 33%

Dew point: 39 °F

Location of Carson CityLocation

Historic Weather in Carson City — Graph

°F

Carson City temperature yesterday

Maximum temperature yesterday: 97 °F (at 2:55 PM)
Minimum temperature yesterday: 66 °F (at 5:55 AM)
Average temperature yesterday: 82 °F

Past Weeks' High & Low Weather Summary

 TemperatureHumidityPressure
High104 °F (Jul 14, 2:55 PM)93% (Jul 20, 9:55 PM)30.06 "Hg (Jul 20, 9:55 PM)
Low57 °F (Jul 24, 5:55 AM)6% (Jul 26, 2:55 PM)29.78 "Hg (Jul 16, 6:55 PM)
Average80 °F32%29.91 "Hg
* Reported Jul 13 4:55 AM — Jul 28 4:55 AM, Carson City, Weather by CustomWeather, © 2014

Note: Actual official high and low records may vary slightly from our data, if they occured in-between our weather recording intervals... More about our weather records

Advertising

Carson City weather history for previous 24 hours

 ConditionsComfort  
Time TempWeatherWind HumidityBarometerVisibility
4:55 AM
Jul 28
68 °FPassing clouds.No wind39%30.00 "Hg10 mi
3:55 AM71 °FPassing clouds.No wind35%29.98 "Hg10 mi
2:55 AM76 °FPassing clouds.6 mph24%29.97 "Hg10 mi
1:55 AM76 °FPassing clouds.No wind25%29.99 "Hg10 mi
12:55 AM78 °FPartly cloudy.3 mph22%29.98 "Hg10 mi
11:55 PM
Jul 27
80 °FPassing clouds.8 mph20%29.98 "Hg10 mi
10:55 PM82 °FPartly cloudy.7 mph18%29.98 "Hg10 mi
9:55 PM84 °FPassing clouds.12 mph17%29.97 "Hg10 mi
8:55 PM88 °FBroken clouds.8 mph12%29.95 "Hg10 mi
7:55 PM89 °FBroken clouds.13 mph11%29.94 "Hg10 mi
6:55 PM92 °FBroken clouds.14 mph12%29.92 "Hg10 mi
5:55 PM94 °FBroken clouds.13 mph11%29.91 "Hg10 mi
4:55 PM95 °FBroken clouds.8 mph8%29.90 "Hg10 mi
3:55 PM97 °FBroken clouds.6 mph8%29.90 "Hg10 mi
2:55 PM97 °FScattered clouds.7 mph8%29.91 "Hg10 mi
1:55 PM94 °FBroken clouds.7 mph9%29.93 "Hg10 mi
12:55 PM93 °FBroken clouds.6 mph10%29.95 "Hg10 mi
11:55 AM87 °FBroken clouds.3 mph13%29.98 "Hg10 mi
10:55 AM84 °FBroken clouds.No wind16%29.99 "Hg10 mi
9:55 AM79 °FBroken clouds.3 mph22%30.02 "Hg10 mi
8:55 AM73 °FBroken clouds.6 mph23%30.04 "Hg10 mi
7:55 AM68 °FBroken clouds.No wind33%30.03 "Hg10 mi
6:55 AM67 °FBroken clouds.No wind36%30.01 "Hg10 mi
Weather by CustomWeather, © 2014

See weather overviewHow to use our weather pages